This demonstration page uses our WeatherBlox Daily Observations layout. Learn more.

Left ArrowRight Arrow

44.89941, -97.11507

Hourly Observations for September 13, 2018

Temp ( °F °C ) Dew Point ( °F °C ) Humidity (%) Winds ( mph kmh ) Pressure ( in mb ) Visibility ( mi km ) Precip ( " mm )
12:53 am 00:53 Clear 67 19.4 61 16.1 81 81 SSE 16 26 29.84 1011 10 16 0.00 0.00
1:53 am 01:53 Clear 67 19.4 61 16.1 81 81 SSE 20 31 29.81 1010 10 16 0.00 0.00
2:53 am 02:53 Clear 66 18.9 61 16.1 84 84 S 18 30 29.81 1010 10 16 0.00 0.00
3:53 am 03:53 Clear 66 18.9 62 16.7 87 87 S 17 28 29.81 1009 10 16 0.00 0.00
4:53 am 04:53 Clear 65 18.3 62 16.7 90 90 SSE 20 31 29.80 1009 10 16 0.00 0.00
5:53 am 05:53 Mostly Clear 65 18.3 63 17.2 93 93 SSE 17 28 29.79 1009 10 16 0.00 0.00
6:15 am 06:15 Mostly Cloudy 65 18.3 63 17.2 93 93 SSE 16 26 29.80 1009 10 16 0.00 0.00
6:53 am 06:53 Cloudy 66 18.9 64 17.8 93 93 S 15 24 29.82 1010 10 16 0.00 0.00
7:53 am 07:53 Cloudy 66 18.9 64 17.8 93 93 S 14 22 29.84 1011 10 16 0.00 0.00
8:23 am 08:23 Cloudy 67 19.4 65 18.3 93 93 S 16 26 29.80 1009 10 16 0.00 0.00
8:53 am 08:53 Mostly Cloudy 69 20.6 65 18.3 87 87 S 21 33 29.83 1010 10 16 0.00 0.00
9:17 am 09:17 Partly Cloudy 70 21.1 66 18.9 87 87 S 22 35 29.77 1008 10 16 0.00 0.00
9:53 am 09:53 Mostly Cloudy 71 21.7 66 18.9 84 84 S 22 35 29.81 1010 10 16 0.00 0.00
10:53 am 10:53 Cloudy 73 22.8 67 19.4 81 81 S 25 41 29.81 1009 10 16 0.00 0.00
11:53 am 11:53 Cloudy 75 23.9 67 19.4 76 76 S 20 31 29.82 1010 10 16 0.00 0.00
12:53 pm 12:53 Cloudy 75 23.9 67 19.4 76 76 S 16 26 29.82 1010 10 16 0.00 0.00
1:41 pm 13:41 Cloudy 75 23.9 67 19.4 76 76 S 16 26 29.80 1009 10 16 0.00 0.00
1:53 pm 13:53 Cloudy 76 24.4 67 19.4 74 74 S 17 28 29.82 1010 10 16 0.00 0.00
2:53 pm 14:53 Cloudy 76 24.4 67 19.4 74 74 S 20 31 29.82 1010 10 16 0.00 0.00
3:53 pm 15:53 Cloudy 76 24.4 67 19.4 74 74 S 13 20 29.82 1010 10 16 0.00 0.00
4:53 pm 16:53 Cloudy 76 24.4 68 20 77 77 S 13 20 29.83 1010 10 16 0.00 0.00
5:53 pm 17:53 Cloudy 75 23.9 68 20 79 79 S 14 22 29.84 1010 10 16 0.00 0.00
6:53 pm 18:53 Cloudy 74 23.3 68 20 82 82 S 12 19 29.84 1010 10 16 0.00 0.00
7:53 pm 19:53 Cloudy 73 22.8 68 20 84 84 SSE 14 22 29.84 1011 10 16 0.00 0.00
8:53 pm 20:53 Partly Cloudy 71 21.7 68 20 90 90 SSE 10 17 29.86 1011 10 16 0.00 0.00
9:53 pm 21:53 Clear 71 21.7 68 20 90 90 SSE 12 19 29.88 1012 10 16 0.00 0.00
10:53 pm 22:53 Partly Cloudy 70 21.1 68 20 93 93 SSE 8 13 29.88 1012 10 16 0.00 0.00
11:53 pm 23:53 Clear 69 20.6 68 20 96 96 SSE 7 11 29.89 1012 10 16 0.00 0.00

Powered by AerisWeather